IUS R/B(1), 26882

Orbit data source: Space-Track

IUS R/B(1), 26882 is space debris in HEO originally from a launch on Mon, 06 Aug 2001 UTC launched from the Air Force Eastern Test Range (AFETR). Debris objects in space refer to the collection of defunct objects orbiting the Earth. Examples of debris include non-operational satellites, rocket bodies, and fragments generated from explosions, collisions, or faulty payload assembly.

Loading next visibility...
IUS R/B(1) details
Identifier
26882, 2001-033C
Orbit
HEO
Last TLE update1 day ago
Origin
Flag of USUSAF SMC (US)
ManufacturerPW CSD
MissionSpacecraft
Bus & MotorORBUS 21, ORBUS 21
Mass1,164 kg wet, 1,164 kg dry
Launch date (UTC)
2001-08-06 (23 years ago)
Launch vehicleUnknown
Launch site
Air Force Eastern Test Range (AFETR)
Object type
Payload
Rocket body
Debris
Shape & HBRCyl, Unknown HBR
Radar Cross Section8.491 m², Large (>1 m²)

Expand to show TLE details & history

TLE from 1 day ago
0 IUS R/B(1)
1 26882U 01033C   24360.02492289  .00002153  00000-0  10992-2 0  9998
2 26882  27.8639 222.8690 7098211 277.2182  13.8357  2.48939786 49061
Epoch: 2024-12-25T00:35Z
Definitive object data (Epoch: 2024-12-25T00:35:53.337Z)
Latitude0.00034°
Longitude119.97973°
Altitude4,130.379 km
Speed7.65 km/s
True Right ascension14h 51m 54s
True Declination0° 00' 01"
Sunlit
Object was in daylight at TLE epoch
Visualization TLE readout
Latitude27.40529°
Longitude-139.194°
Altitude32,865.263 km
Speed1.727 km/s
Apparent Right ascension21h 34m 57s
Apparent Declination19° 22' 24"
Sunlit
Object is in daylight
Visualization observer readout
Local Sidereal Time09:33:09
Azimuth359.505° N
Elevation-30.709°
Doppler factor1
Orbital elements
Apogee altitude32,949.044 km
Perigee altitude296.198 km
Semi-major axis23,000.758 km
Eccentricity0.7098211
Inclination27.8639°
RAAN222.869°
Arg. of periapsis277.2182°
True anomaly82.84594°
Mean anomaly13.8357°
Eccentric anomaly39.95113°
Mean motion0.6222 °/min
BSTAR0.0010992
Orbital period578.59 mins
Loading maneuver chart data...
Loading historical data...
Loading historical data...
Loading historical data...
Loading historical data...
Loading historical data...
Loading historical data...
Loading historical data...
Other satellites on launch #33 in the year 2001 (2001-08-06 UTC)

IUS R/B(1) Visibility forecast

Observer location: undefined°, undefined

Span
Click to sort rows by Start time (UTC) header in descending order
Start Az.
Max El. time (UTC)
Max El. Az.
Max El.
End time (UTC)
End Az.
518 mins2024-12-26 15:08:00.446Z176.092° S2024-12-26 21:22:00.446Z112.694° SE39.561°2024-12-26 23:46:00.446Z118.203° SE
|